#�ϑ�����,���ϕ���,���ϕ���,�ő啗��,�ő啗����������,�ő�u�ԕ���,�ő�u�ԕ�����������
#(�N����),(m/s)   ,(16����),(m/s)   ,(16����)        ,(m/s)       ,(16����)            
2012/3/24 0:01,0.6,8,0.7,8,0.1,10
2012/3/24 0:02,0.5,9,0.6,8,0,10
2012/3/24 0:03,0.5,9,0.5,8,0.6,10
2012/3/24 0:04,0.4,9,0.5,8,1,9
2012/3/24 0:05,0.3,9,0.4,8,0.6,8
2012/3/24 0:06,0.3,9,0.3,8,0,8
2012/3/24 0:07,0.2,9,0.3,8,0.1,12
2012/3/24 0:08,0.2,10,0.2,8,0,13
2012/3/24 0:09,0.1,10,0.2,8,0.3,14
2012/3/24 0:10,0.1,11,0.1,8,0.6,14
2012/3/24 0:11,0.2,11,0.2,8,0.8,14
2012/3/24 0:12,0.2,12,0.2,9,0.8,14
2012/3/24 0:13,0.2,12,0.2,9,0.8,15
2012/3/24 0:14,0.2,13,0.2,9,1,15
2012/3/24 0:15,0.3,13,0.3,9,1,15
2012/3/24 0:16,0.3,14,0.3,9,1,16
2012/3/24 0:17,0.4,14,0.4,14,1,15
2012/3/24 0:18,0.4,14,0.4,14,0.9,15
2012/3/24 0:19,0.4,15,0.4,14,0.8,14
2012/3/24 0:20,0.5,15,0.5,15,1.4,15
2012/3/24 0:21,0.5,15,0.5,15,1.4,14
2012/3/24 0:22,0.6,15,0.6,15,1.6,16
2012/3/24 0:23,0.7,15,0.7,15,2.7,16
2012/3/24 0:24,0.8,15,0.8,15,2.9,16
2012/3/24 0:25,0.9,15,0.9,15,2,15
2012/3/24 0:26,0.9,15,0.9,15,1.3,15
2012/3/24 0:27,1,15,1,15,2.1,16
2012/3/24 0:28,1,15,1,15,1.4,16
2012/3/24 0:29,1.1,15,1.1,15,1.1,16
2012/3/24 0:30,1.1,16,1.1,15,1.1,16
2012/3/24 0:31,1,16,1.1,15,0.8,16
2012/3/24 0:32,1,16,1,15,0.5,16
2012/3/24 0:33,0.8,16,1,15,0,1
2012/3/24 0:34,0.7,16,0.8,15,0,1
2012/3/24 0:35,0.5,16,0.6,15,0,1
2012/3/24 0:36,0.4,16,0.5,15,0,1
2012/3/24 0:37,0.3,16,0.4,15,0.1,1
2012/3/24 0:38,0.2,1,0.3,15,0.3,2
2012/3/24 0:39,0.2,1,0.2,15,0.5,4
2012/3/24 0:40,0.2,1,0.2,16,1.3,5
2012/3/24 0:41,0.2,2,0.2,16,0.8,5
2012/3/24 0:42,0.2,2,0.2,16,0.8,3
2012/3/24 0:43,0.2,2,0.2,16,0.4,2
2012/3/24 0:44,0.3,2,0.3,16,0.8,2
2012/3/24 0:45,0.3,2,0.3,16,0.8,2
2012/3/24 0:46,0.3,2,0.3,16,0.3,15
2012/3/24 0:47,0.3,2,0.3,16,0.1,10
2012/3/24 0:48,0.3,2,0.3,2,0,10
2012/3/24 0:49,0.3,1,0.3,2,0.5,9
2012/3/24 0:50,0.2,14,0.3,2,1,12
2012/3/24 0:51,0.3,13,0.3,2,0.9,12
2012/3/24 0:52,0.3,12,0.3,2,0.9,12
2012/3/24 0:53,0.3,12,0.3,2,0.1,11
2012/3/24 0:54,0.2,11,0.3,2,0,11
2012/3/24 0:55,0.2,11,0.2,2,0,12
2012/3/24 0:56,0.2,11,0.2,2,0,9
2012/3/24 0:57,0.2,10,0.2,2,0.4,7
2012/3/24 0:58,0.2,10,0.2,2,0.4,7
2012/3/24 0:59,0.2,10,0.2,1,0.4,2
2012/3/24 1:00,0.2,11,0.2,14,0.4,1
2012/3/24 1:01,0.1,11,0.2,13,0.8,1
2012/3/24 1:02,0.1,1,0.1,12,1.1,1
2012/3/24 1:03,0.2,2,0.2,12,0.9,2
2012/3/24 1:04,0.3,3,0.3,3,0.8,3
2012/3/24 1:05,0.3,3,0.3,3,0.6,3
2012/3/24 1:06,0.3,3,0.3,3,0.6,2
2012/3/24 1:07,0.4,2,0.4,2,0.9,2
2012/3/24 1:08,0.4,2,0.4,2,1,3
2012/3/24 1:09,0.5,2,0.5,2,0.9,4
2012/3/24 1:10,0.5,3,0.5,2,0.6,6
2012/3/24 1:11,0.5,3,0.5,2,0.5,5
2012/3/24 1:12,0.4,4,0.5,2,0.1,6
2012/3/24 1:13,0.3,4,0.4,2,0,6
2012/3/24 1:14,0.3,4,0.3,2,0,2
2012/3/24 1:15,0.3,4,0.3,2,0,1
2012/3/24 1:16,0.2,4,0.3,2,0.1,4
2012/3/24 1:17,0.2,5,0.2,2,0,3
2012/3/24 1:18,0.1,5,0.2,2,0.1,5
2012/3/24 1:19,0.1,5,0.1,2,0,9
2012/3/24 1:20,0,5,0.1,3,0,9
2012/3/24 1:21,0,5,0,3,0,14
2012/3/24 1:22,0,3,0,4,0,14
2012/3/24 1:23,0,16,0,4,0,14
2012/3/24 1:24,0,15,0,4,0,14
2012/3/24 1:25,0,14,0,4,0,14
2012/3/24 1:26,0,14,0,4,0.5,15
2012/3/24 1:27,0,14,0,5,0.3,15
2012/3/24 1:28,0,14,0,5,0.1,13
2012/3/24 1:29,0.1,14,0.1,5,0.5,13
2012/3/24 1:30,0.2,14,0.2,14,1.4,10
2012/3/24 1:31,0.2,14,0.2,14,1.1,13
2012/3/24 1:32,0.3,14,0.3,14,1.4,12
2012/3/24 1:33,0.4,14,0.4,14,0.8,11
2012/3/24 1:34,0.4,13,0.4,14,0.9,12
2012/3/24 1:35,0.5,13,0.5,13,0.9,11
2012/3/24 1:36,0.5,13,0.5,13,0.5,12
2012/3/24 1:37,0.5,12,0.5,13,0.8,10
2012/3/24 1:38,0.6,12,0.6,12,0.8,16
2012/3/24 1:39,0.6,12,0.6,12,0.8,10
2012/3/24 1:40,0.6,12,0.6,12,1.5,13
2012/3/24 1:41,0.5,12,0.6,12,0.8,12
2012/3/24 1:42,1.1,11,1.1,11,1.5,11
2012/3/24 1:43,1,11,1.1,11,1.5,11
2012/3/24 1:44,0.9,11,1,11,1.1,9
2012/3/24 1:45,0.7,11,0.8,11,1.3,12
2012/3/24 1:46,0.7,11,0.7,11,1,13
2012/3/24 1:47,0.6,11,0.7,11,0.8,12
2012/3/24 1:48,0.6,10,0.6,11,0.6,9
2012/3/24 1:49,0.6,10,0.6,11,2.2,11
2012/3/24 1:50,0.6,10,0.6,11,1.3,11
2012/3/24 1:51,0.7,10,0.7,11,1.5,9
2012/3/24 1:52,0.7,10,0.7,11,1.9,9
2012/3/24 1:53,0.7,10,0.7,11,1.5,9
2012/3/24 1:54,0.7,10,0.7,11,1.4,8
2012/3/24 1:55,0.8,10,0.8,10,1.5,9
2012/3/24 1:56,0.8,10,0.8,10,1.4,9
2012/3/24 1:57,0.9,10,0.9,10,1.1,9
2012/3/24 1:58,0.9,9,0.9,10,1.1,8
2012/3/24 1:59,1,9,1,9,1.9,9
2012/3/24 2:00,1,9,1,9,2,8
2012/3/24 2:01,1.1,9,1.1,9,2,8
2012/3/24 2:02,1.2,9,1.2,9,2.7,9
2012/3/24 2:03,1.3,9,1.3,9,2.7,9
2012/3/24 2:04,1.4,9,1.4,9,4.1,9
2012/3/24 2:05,1.5,9,1.5,9,3.7,9
2012/3/24 2:06,1.6,9,1.6,9,2.9,8
2012/3/24 2:07,1.7,9,1.7,9,2.6,10
2012/3/24 2:08,1.8,9,1.8,9,2.4,8
2012/3/24 2:09,1.7,9,1.8,9,1.8,7
2012/3/24 2:10,1.7,9,1.7,9,1.6,8
2012/3/24 2:11,1.7,9,1.7,9,1.9,10
2012/3/24 2:12,1.5,9,1.7,9,1.9,10
2012/3/24 2:13,1.4,9,1.5,9,2.2,9
2012/3/24 2:14,1.3,9,1.4,9,2.1,10
2012/3/24 2:15,1.1,9,1.2,9,1.3,9
2012/3/24 2:16,1,9,1.1,9,1,8
2012/3/24 2:17,0.8,9,0.9,9,1,8
2012/3/24 2:18,0.7,9,0.8,9,0.9,8
2012/3/24 2:19,0.7,9,0.7,9,1.1,8
2012/3/24 2:20,0.6,10,0.7,9,0.8,9
2012/3/24 2:21,0.6,10,0.6,9,1,9
2012/3/24 2:22,0.5,9,0.6,9,0.8,9
2012/3/24 2:23,0.5,9,0.6,9,1.1,9
2012/3/24 2:24,0.4,9,0.5,9,0.9,8
2012/3/24 2:25,0.4,9,0.4,9,0.6,9
2012/3/24 2:26,0.4,9,0.4,9,0,9
2012/3/24 2:27,0.3,9,0.4,9,0,9
2012/3/24 2:28,0.3,9,0.3,9,0,9
2012/3/24 2:29,0.2,9,0.3,9,0,9
2012/3/24 2:30,0.2,9,0.2,10,0.3,7
2012/3/24 2:31,0.2,9,0.2,10,0.5,7
2012/3/24 2:32,0.2,8,0.2,9,0.4,8
2012/3/24 2:33,0.1,8,0.1,9,0.5,2
2012/3/24 2:34,0.1,7,0.1,9,0.8,3
2012/3/24 2:35,0.1,7,0.1,9,0.8,3
2012/3/24 2:36,0.2,6,0.2,9,0.9,3
2012/3/24 2:37,0.3,5,0.3,9,1.5,3
2012/3/24 2:38,0.4,4,0.4,5,1.6,3
2012/3/24 2:39,0.5,4,0.5,4,1,4
2012/3/24 2:40,0.5,4,0.5,4,0.6,11
2012/3/24 2:41,0.5,4,0.5,4,0.4,10
2012/3/24 2:42,0.5,3,0.5,4,1.3,6
2012/3/24 2:43,0.6,4,0.6,3,1.1,5
2012/3/24 2:44,0.6,4,0.6,3,1.3,5
2012/3/24 2:45,0.7,5,0.7,4,1.3,5
2012/3/24 2:46,0.7,5,0.7,4,0.9,5
2012/3/24 2:47,0.7,5,0.7,4,1,4
2012/3/24 2:48,0.6,5,0.7,4,1.3,4
2012/3/24 2:49,0.7,5,0.7,4,1.3,5
2012/3/24 2:50,0.8,5,0.8,5,1.8,5
2012/3/24 2:51,0.9,5,0.9,5,1.8,5
2012/3/24 2:52,0.9,5,0.9,5,1.6,5
2012/3/24 2:53,0.9,5,0.9,5,1,6
2012/3/24 2:54,0.8,4,0.9,5,0.6,5
2012/3/24 2:55,0.8,4,0.8,5,0.8,4
2012/3/24 2:56,0.8,4,0.8,5,0.5,4
2012/3/24 2:57,0.7,4,0.8,5,0.3,2
2012/3/24 2:58,0.6,4,0.7,5,0,2
2012/3/24 2:59,0.5,4,0.6,5,0,2
2012/3/24 3:00,0.4,4,0.5,5,0,3
2012/3/24 3:01,0.3,3,0.4,5,0,15
2012/3/24 3:02,0.2,2,0.3,5,0.3,1
2012/3/24 3:03,0.1,2,0.2,5,0,1
2012/3/24 3:04,0.1,2,0.1,4,0,3
2012/3/24 3:05,0.1,2,0.1,4,0.8,3
2012/3/24 3:06,0.1,2,0.1,4,0.8,3
2012/3/24 3:07,0.1,2,0.1,4,0.6,15
2012/3/24 3:08,0.2,1,0.2,4,0.8,13
2012/3/24 3:09,0.2,1,0.2,4,0.3,14
2012/3/24 3:10,0.2,16,0.2,3,0,14
2012/3/24 3:11,0.2,1,0.2,3,0,14
2012/3/24 3:12,0.2,2,0.2,2,0,5
2012/3/24 3:13,0.2,1,0.2,2,0.1,15
2012/3/24 3:14,0.2,1,0.2,2,0.5,16
2012/3/24 3:15,0.2,16,0.2,2,0.5,16
2012/3/24 3:16,0.1,16,0.2,2,0.1,1
2012/3/24 3:17,0.1,16,0.1,2,0,1
2012/3/24 3:18,0.1,1,0.1,1,0.3,1
2012/3/24 3:19,0.1,1,0.1,1,0.3,2
2012/3/24 3:20,0.1,2,0.1,16,0.1,2
2012/3/24 3:21,0.1,2,0.1,1,0,2
2012/3/24 3:22,0.1,1,0.1,2,0.1,2
2012/3/24 3:23,0.1,2,0.1,1,0,4
2012/3/24 3:24,0,2,0.1,1,0,5
2012/3/24 3:25,0,2,0,16,0,5
2012/3/24 3:26,0,3,0,16,0,5
2012/3/24 3:27,0,3,0,16,0.6,10
2012/3/24 3:28,0,4,0,1,0.1,10
2012/3/24 3:29,0.1,4,0.1,1,0.5,4
2012/3/24 3:30,0.1,4,0.1,2,0.3,5
2012/3/24 3:31,0.1,5,0.1,2,0.3,5
2012/3/24 3:32,0.1,5,0.1,1,0.3,5
2012/3/24 3:33,0.1,5,0.1,2,0,5
2012/3/24 3:34,0.1,5,0.1,4,0,5
2012/3/24 3:35,0.1,5,0.1,4,0,5
2012/3/24 3:36,0.1,5,0.1,4,0.5,3
2012/3/24 3:37,0.1,5,0.1,4,0.8,3
2012/3/24 3:38,0.1,4,0.1,4,0.8,3
2012/3/24 3:39,0.1,4,0.1,4,0.5,16
2012/3/24 3:40,0.1,4,0.1,5,0.4,2
2012/3/24 3:41,0.1,3,0.1,5,0.4,3
2012/3/24 3:42,0.1,3,0.1,5,0.8,4
2012/3/24 3:43,0.2,3,0.2,3,0.5,3
2012/3/24 3:44,0.2,3,0.2,3,0.8,1
2012/3/24 3:45,0.2,2,0.2,3,1,2
2012/3/24 3:46,0.3,2,0.3,2,1.3,1
2012/3/24 3:47,0.4,2,0.4,2,2,1
2012/3/24 3:48,0.4,2,0.4,2,1.1,16
2012/3/24 3:49,0.4,2,0.4,2,0.5,3
2012/3/24 3:50,0.4,2,0.5,2,0.5,2
2012/3/24 3:51,0.4,2,0.4,2,0.1,1
2012/3/24 3:52,0.4,1,0.4,2,0.1,2
2012/3/24 3:53,0.4,1,0.4,2,0,2
2012/3/24 3:54,0.3,1,0.4,2,0.1,2
2012/3/24 3:55,0.3,1,0.3,2,0.1,10
2012/3/24 3:56,0.2,1,0.3,2,0.3,12
2012/3/24 3:57,0.1,1,0.2,2,0.5,5
2012/3/24 3:58,0.1,2,0.1,2,0.4,8
2012/3/24 3:59,0.1,3,0.1,2,0.4,11
2012/3/24 4:00,0.1,10,0.1,2,1.3,9
2012/3/24 4:01,0.2,9,0.2,1,1.3,9
2012/3/24 4:02,0.3,9,0.3,1,1.6,9
2012/3/24 4:03,0.4,9,0.4,1,1.6,8
2012/3/24 4:04,0.5,9,0.5,9,1.9,8
2012/3/24 4:05,0.6,9,0.6,9,1.5,8
2012/3/24 4:06,0.7,9,0.7,9,1.5,8
2012/3/24 4:07,0.7,9,0.7,9,1,8
2012/3/24 4:08,0.8,9,0.8,9,1.1,8
2012/3/24 4:09,0.8,9,0.8,9,1,9
2012/3/24 4:10,0.8,9,0.8,9,0.9,10
2012/3/24 4:11,0.7,9,0.8,9,0.6,10
2012/3/24 4:12,0.6,9,0.7,9,0.1,8
2012/3/24 4:13,0.5,9,0.6,9,0.3,8
2012/3/24 4:14,0.4,9,0.5,9,0.1,10
2012/3/24 4:15,0.4,9,0.4,9,1.1,10
2012/3/24 4:16,0.4,9,0.4,9,1.1,9
2012/3/24 4:17,0.4,9,0.4,9,1.3,8
2012/3/24 4:18,0.4,9,0.4,9,1.4,9
2012/3/24 4:19,0.5,9,0.5,9,1.6,9
2012/3/24 4:20,0.5,9,0.5,9,1.4,10
2012/3/24 4:21,0.5,9,0.5,9,1.5,8
2012/3/24 4:22,0.6,9,0.6,9,1.8,9
2012/3/24 4:23,0.8,9,0.8,9,2,9
2012/3/24 4:24,0.9,9,0.9,9,2.4,9
2012/3/24 4:25,1,9,1,9,2,10
2012/3/24 4:26,1.1,9,1.1,9,1.8,10
2012/3/24 4:27,1,9,1.1,9,1,10
2012/3/24 4:28,1,10,1,9,1,11
2012/3/24 4:29,0.9,10,1,9,0.9,12
2012/3/24 4:30,0.9,10,0.9,9,0.5,14
2012/3/24 4:31,0.9,11,0.9,9,0.9,15
2012/3/24 4:32,0.9,11,0.9,9,0.9,14
2012/3/24 4:33,0.8,12,0.9,9,1.3,15
2012/3/24 4:34,0.6,12,0.8,9,1,15
2012/3/24 4:35,0.6,13,0.6,9,0.6,15
2012/3/24 4:36,0.4,13,0.5,9,0,15
2012/3/24 4:37,0.4,13,0.4,9,0,12
2012/3/24 4:38,0.3,14,0.4,10,0.4,14
2012/3/24 4:39,0.3,14,0.3,10,0.9,13
2012/3/24 4:40,0.3,13,0.3,10,0.4,12
2012/3/24 4:41,0.3,13,0.3,11,0.6,9
2012/3/24 4:42,0.3,13,0.3,11,0.5,10
2012/3/24 4:43,0.2,12,0.2,12,0.4,11
2012/3/24 4:44,0.2,12,0.2,12,0.4,10
2012/3/24 4:45,0.2,11,0.2,13,0.8,12
2012/3/24 4:46,0.3,11,0.3,13,1.4,12
2012/3/24 4:47,0.3,11,0.3,13,0.8,11
2012/3/24 4:48,0.3,11,0.3,14,0.4,12
2012/3/24 4:49,0.3,11,0.3,14,0.8,12
2012/3/24 4:50,0.3,11,0.3,13,0.8,12
2012/3/24 4:51,0.3,11,0.3,13,1,11
2012/3/24 4:52,0.3,11,0.3,11,0.3,11
2012/3/24 4:53,0.3,11,0.3,11,0.4,15
2012/3/24 4:54,0.3,12,0.3,11,0.6,11
2012/3/24 4:55,0.3,12,0.3,11,0.6,16
2012/3/24 4:56,0.3,12,0.3,11,0.5,16
2012/3/24 4:57,0.2,12,0.3,11,0.8,1
2012/3/24 4:58,0.3,12,0.3,11,0.9,13
2012/3/24 4:59,0.3,12,0.3,11,1.5,12
2012/3/24 5:00,0.4,12,0.4,12,2.1,11
2012/3/24 5:01,0.5,12,0.5,12,1.5,11
2012/3/24 5:02,0.5,12,0.5,12,1.1,10
2012/3/24 5:03,0.6,12,0.6,12,1.8,10
2012/3/24 5:04,0.7,11,0.7,11,1.9,10
2012/3/24 5:05,0.8,11,0.8,11,2,9
2012/3/24 5:06,0.8,11,0.8,11,1.3,9
2012/3/24 5:07,0.9,11,0.9,11,1.8,8
2012/3/24 5:08,1,10,1,10,2.6,11
2012/3/24 5:09,1,10,1,10,1.8,9
2012/3/24 5:10,1,10,1,10,1.9,9
2012/3/24 5:11,0.9,10,1,10,1.3,10
2012/3/24 5:12,0.9,10,0.9,10,2.1,11
2012/3/24 5:13,0.9,10,0.9,10,1,8
2012/3/24 5:14,0.8,10,0.9,10,0.1,13
2012/3/24 5:15,0.7,10,0.8,10,0.6,11
2012/3/24 5:16,0.7,10,0.7,10,0.4,12
2012/3/24 5:17,0.6,11,0.6,10,0.9,16
2012/3/24 5:18,0.5,11,0.6,10,1.3,15
2012/3/24 5:19,0.5,12,0.5,10,1.8,14
2012/3/24 5:20,0.5,13,0.5,10,1.8,15
2012/3/24 5:21,0.5,14,0.6,10,0.9,15
2012/3/24 5:22,0.5,14,0.5,10,1,13
2012/3/24 5:23,0.5,14,0.5,10,0.9,12
2012/3/24 5:24,0.6,14,0.6,10,1.5,13
2012/3/24 5:25,0.6,14,0.6,10,1,11
2012/3/24 5:26,0.6,14,0.6,10,1.4,11
2012/3/24 5:27,0.6,13,0.7,13,0.8,12
2012/3/24 5:28,0.6,13,0.6,13,0.8,11
2012/3/24 5:29,0.5,12,0.6,13,0.5,12
2012/3/24 5:30,0.4,12,0.5,13,0.5,12
2012/3/24 5:31,0.5,12,0.5,13,0.6,12
2012/3/24 5:32,0.5,12,0.5,13,0.9,13
2012/3/24 5:33,0.5,12,0.5,13,0.8,12
2012/3/24 5:34,0.4,12,0.5,13,1.1,14
2012/3/24 5:35,0.4,12,0.4,13,0.9,14
2012/3/24 5:36,0.4,13,0.4,13,0.6,15
2012/3/24 5:37,0.4,13,0.4,13,0.5,12
2012/3/24 5:38,0.3,13,0.4,13,0.4,11
2012/3/24 5:39,0.4,13,0.4,12,0.8,12
2012/3/24 5:40,0.4,13,0.4,12,1.3,12
2012/3/24 5:41,0.4,13,0.4,12,1.3,9
2012/3/24 5:42,0.5,12,0.5,12,1,9
2012/3/24 5:43,0.5,12,0.5,12,0.9,8
2012/3/24 5:44,0.5,11,0.5,12,1.1,11
2012/3/24 5:45,0.5,10,0.5,12,0.8,9
2012/3/24 5:46,0.6,10,0.6,10,1.9,11
2012/3/24 5:47,0.7,10,0.7,10,1.5,10
2012/3/24 5:48,0.8,10,0.8,10,1.8,10
2012/3/24 5:49,0.9,10,0.9,10,1.4,13
2012/3/24 5:50,0.8,10,0.9,10,0.8,12
2012/3/24 5:51,0.8,10,0.8,10,1,10
2012/3/24 5:52,0.7,10,0.8,10,0.8,9
2012/3/24 5:53,0.7,11,0.7,10,1,11
2012/3/24 5:54,0.7,11,0.7,10,0.9,8
2012/3/24 5:55,0.7,11,0.7,10,1,9
2012/3/24 5:56,0.7,11,0.7,10,1.5,10
2012/3/24 5:57,0.6,10,0.7,10,1.4,9
2012/3/24 5:58,0.6,10,0.6,10,1,10
2012/3/24 5:59,0.5,10,0.6,10,0.6,9
2012/3/24 6:00,0.5,9,0.5,10,0.6,8
2012/3/24 6:01,0.5,9,0.5,10,0.3,11
2012/3/24 6:02,0.4,9,0.4,10,0.5,12
2012/3/24 6:03,0.4,9,0.4,11,0.1,7
2012/3/24 6:04,0.4,9,0.4,11,0.3,10
2012/3/24 6:05,0.3,9,0.4,11,0.1,9
2012/3/24 6:06,0.2,9,0.3,11,0.4,9
2012/3/24 6:07,0.2,9,0.2,10,0.9,9
2012/3/24 6:08,0.2,9,0.2,10,0.9,9
2012/3/24 6:09,0.2,9,0.2,10,0.3,9
2012/3/24 6:10,0.2,9,0.2,9,0.5,10
2012/3/24 6:11,0.2,9,0.2,9,0.5,10
2012/3/24 6:12,0.2,9,0.2,9,0.3,11
2012/3/24 6:13,0.2,9,0.2,9,0.1,2
2012/3/24 6:14,0.2,9,0.2,9,0.1,2
2012/3/24 6:15,0.2,9,0.2,9,0.1,14
2012/3/24 6:16,0.2,10,0.2,9,0.5,14
2012/3/24 6:17,0.2,11,0.2,9,0.4,15
2012/3/24 6:18,0.1,13,0.2,9,0.8,1
2012/3/24 6:19,0.1,14,0.1,9,0.9,16
2012/3/24 6:20,0.2,15,0.2,9,1.1,15
2012/3/24 6:21,0.2,15,0.2,9,1.5,15
2012/3/24 6:22,0.3,15,0.3,15,0.9,13
2012/3/24 6:23,0.3,16,0.3,15,0.5,1
2012/3/24 6:24,0.3,16,0.3,15,0.8,3
2012/3/24 6:25,0.4,15,0.4,15,2,11
2012/3/24 6:26,0.5,15,0.5,15,1.5,13
2012/3/24 6:27,0.6,15,0.6,15,1.4,13
2012/3/24 6:28,0.7,14,0.7,15,2.6,12
2012/3/24 6:29,0.9,14,0.9,14,2.5,13
2012/3/24 6:30,1,14,1,14,3.1,14
2012/3/24 6:31,1,14,1,14,2.6,13
2012/3/24 6:32,1,13,1,14,0.9,9
2012/3/24 6:33,1.1,12,1.1,13,1.9,9
2012/3/24 6:34,1.1,12,1.1,13,2.1,9
2012/3/24 6:35,1.1,12,1.1,13,4.2,11
2012/3/24 6:36,1.2,11,1.2,12,4.8,10
2012/3/24 6:37,1.4,11,1.4,11,4.8,10
2012/3/24 6:38,1.6,11,1.6,11,5.1,11
2012/3/24 6:39,1.6,11,1.6,11,3.7,10
2012/3/24 6:40,1.8,10,1.8,10,6,10
2012/3/24 6:41,2,10,2,10,4.3,10
2012/3/24 6:42,2.1,10,2.1,10,5,9
2012/3/24 6:43,2.2,10,2.2,10,3.3,9
2012/3/24 6:44,2.4,10,2.4,10,4.3,12
2012/3/24 6:45,2.5,10,2.5,10,3.6,11
2012/3/24 6:46,2.6,10,2.6,10,4.4,11
2012/3/24 6:47,2.5,11,2.6,10,3.5,11
2012/3/24 6:48,2.3,11,2.5,10,3.3,11
2012/3/24 6:49,2.2,11,2.3,10,1.8,13
2012/3/24 6:50,2.1,11,2.2,10,3,13
2012/3/24 6:51,1.9,11,2,10,2.1,9
2012/3/24 6:52,1.8,11,1.9,10,2.5,12
2012/3/24 6:53,1.7,11,1.8,10,1.6,10
2012/3/24 6:54,1.6,11,1.7,10,2.7,10
2012/3/24 6:55,1.5,11,1.6,10,2.1,10
2012/3/24 6:56,1.4,11,1.5,10,3.6,10
2012/3/24 6:57,1.3,11,1.4,11,3.2,10
2012/3/24 6:58,1.2,11,1.3,11,3,9
2012/3/24 6:59,1.4,11,1.4,11,4.2,9
2012/3/24 7:00,1.5,11,1.5,11,4.1,10
2012/3/24 7:01,1.6,11,1.6,11,4.2,9
2012/3/24 7:02,1.5,11,1.6,11,2.2,10
2012/3/24 7:03,1.8,11,1.8,11,5.6,9
2012/3/24 7:04,2,11,2,10,5.1,10
2012/3/24 7:05,2.1,10,2.1,10,4.3,9
2012/3/24 7:06,2.2,10,2.2,10,3.5,10
2012/3/24 7:07,2.2,10,2.2,10,3,9
2012/3/24 7:08,2.2,10,2.2,10,1.9,11
2012/3/24 7:09,2.1,11,2.2,10,2.4,12
2012/3/24 7:10,2,11,2.1,10,2.2,9
2012/3/24 7:11,2,11,2,10,2.5,11
2012/3/24 7:12,2,11,2,10,3,10
2012/3/24 7:13,1.9,11,2,10,3.2,10
2012/3/24 7:14,1.7,11,1.9,10,1.9,10
2012/3/24 7:15,1.5,11,1.6,10,1.9,10
2012/3/24 7:16,1.5,11,1.5,10,4.2,9
2012/3/24 7:17,1.6,11,1.6,10,3.7,10
2012/3/24 7:18,1.7,11,1.7,10,4.4,11
2012/3/24 7:19,1.7,11,1.7,11,3.1,10
2012/3/24 7:20,1.9,11,1.9,11,5.8,12
2012/3/24 7:21,2,11,2,11,5.4,9
2012/3/24 7:22,2.2,11,2.2,11,5.6,11
2012/3/24 7:23,2.2,11,2.2,11,3.3,13
2012/3/24 7:24,2.3,11,2.3,11,4.9,11
2012/3/24 7:25,2.3,11,2.3,11,2.2,13
2012/3/24 7:26,2.2,11,2.3,11,1.6,12
2012/3/24 7:27,2.2,11,2.2,11,4.4,13
2012/3/24 7:28,2.1,11,2.2,11,3.5,10
2012/3/24 7:29,1.9,11,2.1,11,1.3,7
2012/3/24 7:30,1.7,11,1.9,11,3.6,11
2012/3/24 7:31,1.7,11,1.7,11,5.7,9
2012/3/24 7:32,1.5,11,1.7,11,2.5,10
2012/3/24 7:33,1.4,11,1.5,11,1.9,11
2012/3/24 7:34,1.3,12,1.4,11,2,11
2012/3/24 7:35,1.3,11,1.3,11,3.3,12
2012/3/24 7:36,1.4,12,1.4,11,2.2,12
2012/3/24 7:37,1.3,11,1.4,11,2.4,12
2012/3/24 7:38,1.2,12,1.3,11,2.4,13
2012/3/24 7:39,1.5,12,1.5,11,4.9,12
2012/3/24 7:40,1.6,11,1.6,12,3.9,13
2012/3/24 7:41,1.4,11,1.6,11,2.6,10
2012/3/24 7:42,1.5,12,1.5,12,4.7,9
2012/3/24 7:43,1.9,11,1.9,11,7.1,11
2012/3/24 7:44,2.1,12,2.1,11,6.9,12
2012/3/24 7:45,2.3,12,2.3,12,5.1,13
2012/3/24 7:46,2.5,12,2.5,12,6.3,13
2012/3/24 7:47,2.6,12,2.6,12,3.6,12
2012/3/24 7:48,3.1,12,3.1,12,8.3,12
2012/3/24 7:49,2.9,12,3.1,12,2.4,13
2012/3/24 7:50,2.9,12,2.9,12,3.2,9
2012/3/24 7:51,3,12,3,12,3.5,12
2012/3/24 7:52,3.1,12,3.1,12,6.5,13
2012/3/24 7:53,3,12,3.1,12,6.5,13
2012/3/24 7:54,3.1,12,3.1,12,7.4,11
2012/3/24 7:55,3,12,3.1,12,8.5,13
2012/3/24 7:56,3,12,3,12,6.8,14
2012/3/24 7:57,3,12,3,12,3.6,12
2012/3/24 7:58,2.6,12,2.9,12,8.4,13
2012/3/24 7:59,3.1,12,3.1,12,9.3,13
2012/3/24 8:00,3.2,12,3.2,12,7,12
2012/3/24 8:01,3.4,12,3.4,12,7,13
2012/3/24 8:02,3.5,12,3.6,12,7.7,12
2012/3/24 8:03,3.4,12,3.6,12,5.5,13
2012/3/24 8:04,3.4,13,3.4,12,5.2,15
2012/3/24 8:05,3.4,13,3.4,12,5,14
2012/3/24 8:06,3.2,13,3.4,12,3.3,16
2012/3/24 8:07,3.3,13,3.3,12,3.8,13
2012/3/24 8:08,3.3,14,3.3,12,4.1,14
2012/3/24 8:09,2.8,14,3.2,12,1.9,15
2012/3/24 8:10,2.6,14,2.8,12,2,14
2012/3/24 8:11,2.6,14,2.6,12,8.1,13
2012/3/24 8:12,2.6,14,2.7,13,6.5,13
2012/3/24 8:13,2.7,14,2.7,12,8.9,10
2012/3/24 8:14,2.6,13,2.7,13,7,10
2012/3/24 8:15,2.6,13,2.6,13,3.8,14
2012/3/24 8:16,2.8,13,2.8,13,5.2,12
2012/3/24 8:17,2.9,13,2.9,13,5.6,12
2012/3/24 8:18,3,12,3,14,5.5,12
2012/3/24 8:19,3.2,12,3.2,12,7.2,14
2012/3/24 8:20,3.5,13,3.5,13,8.9,16
2012/3/24 8:21,3.4,13,3.6,13,7.8,16
2012/3/24 8:22,3.2,13,3.4,13,3.5,11
2012/3/24 8:23,3,13,3.2,13,3.6,12
2012/3/24 8:24,2.9,13,3,13,3.8,10
2012/3/24 8:25,2.9,12,3,13,3.8,12
2012/3/24 8:26,2.8,12,2.9,13,3.9,12
2012/3/24 8:27,2.6,12,2.7,13,3.1,13
2012/3/24 8:28,2.5,12,2.6,13,3.3,12
2012/3/24 8:29,2.4,12,2.5,13,3.7,9
2012/3/24 8:30,2.3,12,2.4,13,6.7,13
2012/3/24 8:31,2.4,12,2.4,13,9.2,15
2012/3/24 8:32,2.8,11,2.8,13,9.1,9
2012/3/24 8:33,3.1,12,3.1,12,7.7,13
2012/3/24 8:34,3.4,12,3.4,12,10.6,10
2012/3/24 8:35,3.8,11,3.8,11,9.9,10
2012/3/24 8:36,4.1,12,4.1,12,7.4,12
2012/3/24 8:37,4.3,12,4.3,12,7.8,13
2012/3/24 8:38,4.4,12,4.5,12,5.1,11
2012/3/24 8:39,4.4,12,4.4,12,5.1,9
2012/3/24 8:40,4.5,12,4.5,12,6.4,12
2012/3/24 8:41,4.4,11,4.6,12,5.6,12
2012/3/24 8:42,4.3,12,4.4,12,8.3,9
2012/3/24 8:43,4.3,11,4.3,12,9.8,13
2012/3/24 8:44,4.1,12,4.3,12,8.5,15
2012/3/24 8:45,3.8,12,4,12,8.3,11
2012/3/24 8:46,4.1,11,4.2,12,13.6,11
2012/3/24 8:47,4.1,11,4.2,12,9.2,13
2012/3/24 8:48,4.2,11,4.3,12,9.5,11
2012/3/24 8:49,4.4,11,4.4,12,9,13
2012/3/24 8:50,4.3,11,4.4,12,9,11
2012/3/24 8:51,4.4,11,4.5,11,6.8,13
2012/3/24 8:52,4.6,12,4.7,11,9.2,13
2012/3/24 8:53,4.5,12,4.7,11,8.1,15
2012/3/24 8:54,4.8,12,4.8,12,10.5,12
2012/3/24 8:55,4.8,12,4.9,12,5.7,12
2012/3/24 8:56,4.4,12,4.8,12,6.5,10
2012/3/24 8:57,4.5,12,4.5,12,10.2,12
2012/3/24 8:58,4.5,12,4.6,12,7.8,12
2012/3/24 8:59,4.6,12,4.6,12,7.7,8
2012/3/24 9:00,4.8,12,4.8,12,9.5,11
2012/3/24 9:01,5,12,5,12,12.3,13
2012/3/24 9:02,4.7,12,5,12,8.5,13
2012/3/24 9:03,4.8,12,4.8,12,7.4,10
2012/3/24 9:04,4.6,12,4.8,12,8.2,12
2012/3/24 9:05,4.7,12,4.7,12,11.7,9
2012/3/24 9:06,5,12,5,12,12.2,12
2012/3/24 9:07,5,12,5.1,12,10.1,12
2012/3/24 9:08,4.7,12,4.9,12,3.6,13
2012/3/24 9:09,4.5,12,4.7,12,4.9,11
2012/3/24 9:10,4.1,12,4.5,12,3.1,7
2012/3/24 9:11,3.7,12,4.1,12,6.8,11
2012/3/24 9:12,3.8,11,3.8,12,10.3,12
2012/3/24 9:13,4,11,4,12,9.9,12
2012/3/24 9:14,3.8,11,4,12,5.8,12
2012/3/24 9:15,3.7,12,3.8,12,5.4,10
2012/3/24 9:16,3.4,12,3.7,12,6.9,11
2012/3/24 9:17,3.4,12,3.4,12,9.1,11
2012/3/24 9:18,3.6,11,3.6,12,8.1,10
2012/3/24 9:19,3.9,12,3.9,12,9.5,10
2012/3/24 9:20,4.2,12,4.2,12,7.5,12
2012/3/24 9:21,4.3,12,4.4,12,10.8,12
2012/3/24 9:22,4.3,12,4.5,12,8.5,13
2012/3/24 9:23,4.1,12,4.2,12,11.5,13
2012/3/24 9:24,4.4,12,4.4,12,8.9,12
2012/3/24 9:25,4.5,12,4.5,12,9.5,11
2012/3/24 9:26,4.6,12,4.6,12,12.3,9
2012/3/24 9:27,4.6,12,4.7,12,9.2,10
2012/3/24 9:28,4.4,12,4.6,12,5.6,9
2012/3/24 9:29,4.5,12,4.5,12,12.2,15
2012/3/24 9:30,4.7,12,4.8,12,11.4,14
2012/3/24 9:31,4.5,12,4.7,12,5.2,1
2012/3/24 9:32,4.5,12,4.5,12,5,11
2012/3/24 9:33,4.4,12,4.5,12,7.5,10
2012/3/24 9:34,4.3,12,4.3,12,11.1,14
2012/3/24 9:35,4.3,12,4.5,12,11.4,16
2012/3/24 9:36,4.2,12,4.4,12,5.2,13
2012/3/24 9:37,4,12,4.3,12,5.8,12
2012/3/24 9:38,4.2,12,4.2,12,6.8,10
2012/3/24 9:39,3.8,12,4.2,12,6.1,8
2012/3/24 9:40,3.7,12,3.7,12,7,12
2012/3/24 9:41,3.9,12,3.9,12,8.9,12
2012/3/24 9:42,4.2,12,4.2,12,8.1,9
2012/3/24 9:43,4.3,12,4.4,12,9.2,10
2012/3/24 9:44,4.3,11,4.4,12,9.4,11
2012/3/24 9:45,4.4,11,4.4,12,10,11
2012/3/24 9:46,4.6,11,4.6,11,10.1,9
2012/3/24 9:47,4.8,11,4.8,11,9.3,13
2012/3/24 9:48,4.8,11,4.9,11,9.4,11
2012/3/24 9:49,5,11,5,11,8.1,9
2012/3/24 9:50,5.3,11,5.3,11,14.9,9
2012/3/24 9:51,5.6,11,5.6,11,15.6,10
2012/3/24 9:52,5.8,11,5.8,11,16.3,10
2012/3/24 9:53,5.8,11,5.8,11,9.8,12
2012/3/24 9:54,5.6,11,5.8,11,9.9,9
2012/3/24 9:55,5.6,11,5.6,11,10.7,11
2012/3/24 9:56,5.6,11,5.6,11,11.6,9
2012/3/24 9:57,5.6,11,5.6,11,9.1,10
2012/3/24 9:58,5.6,11,5.6,11,6.8,12
2012/3/24 9:59,5.2,11,5.6,11,4.7,1
2012/3/24 10:00,5,12,5.3,11,6.5,11
2012/3/24 10:01,4.3,12,4.9,11,5.6,12
2012/3/24 10:02,4,12,4.2,11,5.8,8
2012/3/24 10:03,3.9,12,4,11,8.4,11
2012/3/24 10:04,4.1,11,4.2,11,11,10
2012/3/24 10:05,4,11,4.1,11,7.1,10
2012/3/24 10:06,3.9,11,4,11,8.1,11
2012/3/24 10:07,4,12,4,11,11.3,12
2012/3/24 10:08,4.1,11,4.1,11,6.4,12
2012/3/24 10:09,4.4,11,4.4,11,7.4,13
2012/3/24 10:10,4.2,12,4.3,12,4.8,12
2012/3/24 10:11,4.2,11,4.2,11,4.4,8
2012/3/24 10:12,4.1,12,4.2,11,6.1,11
2012/3/24 10:13,3.9,12,4.1,11,5.4,12
2012/3/24 10:14,3.5,12,3.9,11,5.7,10
2012/3/24 10:15,3.5,12,3.5,11,7,10
2012/3/24 10:16,3.4,12,3.5,11,5.6,11
2012/3/24 10:17,3,12,3.3,11,7.4,10
2012/3/24 10:18,3.1,12,3.1,11,9.9,9
2012/3/24 10:19,3.1,11,3.1,11,7.1,11
2012/3/24 10:20,3.2,11,3.2,12,7.5,11
2012/3/24 10:21,3.3,11,3.3,11,6.2,12
2012/3/24 10:22,3.6,11,3.6,12,11.9,12
2012/3/24 10:23,4,11,4,11,11.3,13
2012/3/24 10:24,3.9,12,4,11,4.9,15
2012/3/24 10:25,3.7,12,3.9,11,3,8
2012/3/24 10:26,3.8,12,3.8,11,7.5,9
2012/3/24 10:27,4,12,4,11,11.4,11
2012/3/24 10:28,3.9,12,4,11,8.5,9
2012/3/24 10:29,3.9,12,3.9,11,7.9,10
2012/3/24 10:30,4.2,11,4.2,11,11.5,10
2012/3/24 10:31,4.4,11,4.4,11,9.2,11
2012/3/24 10:32,4.4,11,4.5,11,12.2,10
2012/3/24 10:33,4.1,11,4.3,11,7.9,12
2012/3/24 10:34,4.5,11,4.5,11,9.1,10
2012/3/24 10:35,4.5,11,4.5,11,6.5,9
2012/3/24 10:36,4.5,11,4.6,11,6.4,12
2012/3/24 10:37,4.3,11,4.6,11,6.2,12
2012/3/24 10:38,4.1,11,4.3,11,5.7,12
2012/3/24 10:39,4.1,11,4.2,11,4.8,10
2012/3/24 10:40,3.8,12,4,11,8.2,15
2012/3/24 10:41,3.6,12,3.8,11,6.5,14
2012/3/24 10:42,3.3,12,3.6,11,3.8,13
2012/3/24 10:43,3.4,12,3.4,11,9.7,9
2012/3/24 10:44,3.4,12,3.4,11,7.5,10
2012/3/24 10:45,3.6,12,3.6,11,7.1,9
2012/3/24 10:46,3.8,12,3.8,11,8.2,12
2012/3/24 10:47,4,12,4,11,10.5,10
2012/3/24 10:48,4.3,12,4.3,12,8.2,10
2012/3/24 10:49,4.4,11,4.4,11,7.6,10
2012/3/24 10:50,4.3,11,4.4,11,4.3,10
2012/3/24 10:51,4.4,11,4.4,11,9.7,13
2012/3/24 10:52,4.6,11,4.6,11,8.2,11
2012/3/24 10:53,4.5,11,4.6,11,8.5,12
2012/3/24 10:54,4.6,11,4.6,11,9.7,13
2012/3/24 10:55,4.8,11,4.8,11,10.1,12
2012/3/24 10:56,4.6,11,4.8,11,7,10
2012/3/24 10:57,4.7,11,4.7,11,9.4,10
2012/3/24 10:58,4.6,11,4.7,11,7,10
2012/3/24 10:59,4.4,12,4.6,11,6.3,12
2012/3/24 11:00,4.8,12,4.8,11,10.5,12
2012/3/24 11:01,4.8,12,4.9,12,9.2,12
2012/3/24 11:02,4.9,12,4.9,12,8.7,11
2012/3/24 11:03,4.8,11,4.9,12,7.1,10
2012/3/24 11:04,4.7,12,4.7,12,10.6,12
2012/3/24 11:05,4.5,12,4.7,12,9.1,13
2012/3/24 11:06,4.6,12,4.6,12,7,13
2012/3/24 11:07,4.5,12,4.6,12,10.9,11
2012/3/24 11:08,4.6,12,4.6,12,8.3,12
2012/3/24 11:09,4.6,12,4.7,12,7.5,10
2012/3/24 11:10,4.4,12,4.6,12,8.3,12
2012/3/24 11:11,4.6,12,4.6,12,11.6,13